QPF
0.01 0.01 0.01 0.01 0.01 0.00 0.00 0.00 0.00 0.00 0.00 0.00 0.00 0.00 0.00 0.00 0.00 0.00 0.00 0.01 0.01 0.01 0.01 0.01 0.01 0.01 0.01 0.01 0.01 0.01 0.01 0.00 0.00 0.01 0.01 0.02 0.03 0.04 0.04 0.03 0.03 0.05 0.05
0.01 0.01 0.01 0.01 0.01 0.00 0.00 0.00 0.00 0.00 0.00 0.00 0.00 0.00 0.00 0.00 0.00 0.00 0.01 0.01 0.01 0.01 0.01 0.01 0.01 0.01 0.00 0.01 0.01 0.01 0.01 0.01 0.00 0.01 0.02 0.02 0.02 0.03 0.04 0.04 0.04 0.04 0.04
0.01 0.02 0.01 0.00 0.00 0.00 0.00 0.00 0.00 0.00 0.00 0.00 0.00 0.00 0.00 0.00 0.00 0.00 0.00 0.00 0.01 0.01 0.01 0.01 0.01 0.02 0.02 0.02 0.02 0.01 0.01 0.01 0.00 0.00 0.01 0.01 0.01 0.02 0.03 0.03 0.05 0.05 0.04
0.01 0.01 0.01 0.00 0.00 0.00 0.00 0.00 0.01 0.01 0.00 0.00 0.00 0.00 0.00 0.00 0.00 0.00 0.00 0.00 0.00 0.00 0.01 0.01 0.01 0.02 0.02 0.01 0.00 0.01 0.01 0.01 0.01 0.01 0.01 0.00 0.01 0.01 0.02 0.02 0.03 0.04 0.05
0.00 0.01 0.01 0.01 0.00 0.00 0.00 0.00 0.00 0.00 0.00 0.00 0.00 0.00 0.00 0.00 0.00 0.00 0.00 0.00 0.00 0.00 0.01 0.02 0.01 0.02 0.02 0.01 0.01 0.01 0.01 0.01 0.01 0.01 0.01 0.01 0.01 0.01 0.02 0.03 0.03 0.04 0.05
0.00 0.01 0.01 0.01 0.00 0.00 0.00 0.00 0.00 0.00 0.00 0.00 0.00 0.00 0.00 0.00 0.00 0.00 0.00 0.00 0.00 0.00 0.01 0.01 0.00 0.01 0.01 0.01 0.02 0.01 0.01 0.01 0.01 0.02 0.01 0.01 0.01 0.01 0.02 0.03 0.03 0.04 0.04
0.00 0.01 0.01 0.01 0.01 0.00 0.00 0.00 0.00 0.00 0.00 0.00 0.00 0.00 0.00 0.00 0.00 0.00 0.00 0.00 0.00 0.00 0.00 0.00 0.00 0.00 0.00 0.01 0.00 0.00 0.01 0.01 0.02 0.03 0.02 0.01 0.01 0.01 0.02 0.02 0.03 0.03 0.03
0.01 0.01 0.01 0.01 0.01 0.00 0.00 0.00 0.00 0.00 0.00 0.00 0.00 0.00 0.00 0.00 0.00 0.00 0.00 0.00 0.00 0.00 0.00 0.00 0.01 0.00 0.00 0.00 0.00 0.00 0.00 0.01 0.01 0.02 0.02 0.01 0.02 0.02 0.02 0.02 0.03 0.04 0.05
0.01 0.01 0.01 0.01 0.01 0.00 0.00 0.00 0.00 0.00 0.00 0.00 0.00 0.00 0.00 0.00 0.00 0.00 0.00 0.00 0.00 0.00 0.00 0.00 0.01 0.01 0.00 0.00 0.00 0.00 0.01 0.01 0.01 0.01 0.01 0.01 0.01 0.02 0.03 0.03 0.04 0.04 0.05
0.00 0.00 0.01 0.01 0.01 0.00 0.00 0.00 0.00 0.00 0.00 0.00 0.00 0.00 0.00 0.00 0.00 0.00 0.00 0.00 0.00 0.00 0.00 0.01 0.01 0.01 0.00 0.00 0.00 0.00 0.01 0.01 0.01 0.01 0.01 0.01 0.01 0.01 0.02 0.03 0.03 0.04 0.05
0.00 0.00 0.00 0.01 0.01 0.00 0.00 0.00 0.00 0.00 0.00 0.00 0.00 0.00 0.00 0.00 0.00 0.00 0.00 0.00 0.00 0.00 0.00 0.01 0.01 0.00 0.00 0.00 0.01 0.01 0.01 0.01 0.01 0.01 0.01 0.01 0.01 0.01 0.01 0.03 0.04 0.05 0.05
0.00 0.00 0.00 0.00 0.00 0.00 0.00 0.00 0.00 0.00 0.00 0.00 0.00 0.00 0.00 0.00 0.00 0.00 0.00 0.00 0.01 0.01 0.01 0.00 0.00 0.00 0.00 0.00 0.00 0.01 0.01 0.01 0.01 0.01 0.01 0.01 0.01 0.01 0.01 0.02 0.05 0.07 0.06
0.00 0.00 0.00 0.00 0.00 0.00 0.00 0.00 0.00 0.00 0.00 0.00 0.00 0.00 0.00 0.00 0.00 0.00 0.00 0.00 0.01 0.01 0.01 0.01 0.01 0.01 0.01 0.00 0.00 0.01 0.01 0.01 0.01 0.01 0.01 0.01 0.01 0.01 0.02 0.03 0.04 0.06 0.07
0.00 0.00 0.00 0.00 0.00 0.00 0.00 0.00 0.00 0.00 0.00 0.00 0.00 0.00 0.00 0.00 0.00 0.00 0.00 0.00 0.01 0.01 0.01 0.01 0.01 0.01 0.01 0.00 0.00 0.00 0.00 0.01 0.01 0.01 0.01 0.01 0.01 0.01 0.02 0.03 0.03 0.03 0.05
0.00 0.00 0.00 0.00 0.00 0.00 0.00 0.00 0.00 0.00 0.00 0.00 0.00 0.00 0.00 0.00 0.00 0.00 0.01 0.01 0.01 0.01 0.01 0.01 0.01 0.01 0.01 0.01 0.00 0.00 0.00 0.01 0.01 0.01 0.02 0.02 0.02 0.02 0.02 0.02 0.03 0.04 0.04
0.00 0.00 0.00 0.00 0.00 0.00 0.01 0.01 0.00 0.00 0.00 0.00 0.00 0.00 0.00 0.00 0.00 0.00 0.01 0.01 0.01 0.01 0.01 0.01 0.01 0.01 0.01 0.01 0.01 0.01 0.01 0.01 0.01 0.02 0.02 0.02 0.02 0.03 0.03 0.03 0.03 0.04 0.04
0.00 0.00 0.00 0.00 0.00 0.00 0.00 0.01 0.00 0.00 0.00 0.00 0.00 0.00 0.00 0.00 0.00 0.00 0.00 0.01 0.01 0.01 0.01 0.01 0.01 0.01 0.02 0.02 0.02 0.02 0.02 0.01 0.01 0.02 0.03 0.03 0.03 0.03 0.04 0.04 0.04 0.03 0.03
0.00 0.00 0.00 0.00 0.00 0.00 0.00 0.00 0.00 0.00 0.00 0.00 0.00 0.00 0.00 0.00 0.00 0.00 0.00 0.00 0.01 0.01 0.01 0.01 0.01 0.01 0.02 0.02 0.03 0.02 0.02 0.02 0.03 0.03 0.03 0.04 0.05 0.05 0.05 0.05 0.05 0.03 0.02
0.00 0.00 0.00 0.00 0.00 0.00 0.00 0.00 0.00 0.00 0.00 0.00 0.00 0.00 0.00 0.00 0.00 0.00 0.00 0.00 0.01 0.01 0.01 0.01 0.01 0.02 0.02 0.02 0.03 0.03 0.03 0.03 0.03 0.03 0.04 0.04 0.05 0.05 0.05 0.06 0.06 0.04 0.03
0.00 0.00 0.00 0.00 0.00 0.00 0.00 0.00 0.00 0.00 0.00 0.00 0.00 0.00 0.00 0.00 0.00 0.00 0.01 0.01 0.01 0.02 0.01 0.02 0.02 0.02 0.03 0.03 0.03 0.04 0.04 0.05 0.05 0.05 0.04 0.05 0.06 0.06 0.06 0.06 0.06 0.06 0.04
0.00 0.00 0.00 0.00 0.00 0.00 0.00 0.00 0.00 0.00 0.00 0.00 0.00 0.00 0.00 0.00 0.00 0.01 0.01 0.01 0.01 0.02 0.02 0.02 0.02 0.02 0.02 0.03 0.04 0.04 0.05 0.05 0.05 0.06 0.06 0.06 0.06 0.08 0.08 0.08 0.08 0.08 0.07
0.00 0.00 0.00 0.00 0.00 0.00 0.00 0.00 0.00 0.00 0.00 0.00 0.00 0.00 0.00 0.01 0.01 0.00 0.00 0.00 0.01 0.02 0.02 0.03 0.03 0.03 0.03 0.03 0.04 0.04 0.04 0.05 0.06 0.06 0.07 0.06 0.06 0.07 0.07 0.08 0.09 0.09 0.09
0.00 0.00 0.00 0.00 0.00 0.00 0.00 0.00 0.00 0.00 0.00 0.00 0.00 0.01 0.01 0.01 0.01 0.01 0.00 0.01 0.01 0.02 0.03 0.03 0.03 0.03 0.03 0.04 0.04 0.05 0.04 0.04 0.05 0.06 0.07 0.07 0.07 0.07 0.07 0.06 0.07 0.07 0.08
0.00 0.00 0.00 0.00 0.00 0.00 0.00 0.00 0.00 0.00 0.00 0.01 0.01 0.01 0.01 0.01 0.01 0.01 0.01 0.01 0.01 0.02 0.03 0.05 0.06 0.05 0.04 0.04 0.04 0.04 0.04 0.05 0.06 0.07 0.07 0.08 0.09 0.09 0.08 0.07 0.07 0.07 0.07
0.00 0.00 0.00 0.00 0.00 0.00 0.00 0.00 0.00 0.01 0.01 0.01 0.01 0.01 0.01 0.02 0.02 0.01 0.01 0.02 0.02 0.04 0.04 0.04 0.04 0.03 0.03 0.03 0.03 0.03 0.04 0.06 0.08 0.08 0.08 0.08 0.07 0.08 0.09 0.08 0.07 0.07 0.07
0.00 0.00 0.00 0.00 0.00 0.00 0.00 0.00 0.00 0.01 0.01 0.01 0.01 0.02 0.02 0.02 0.02 0.02 0.02 0.02 0.03 0.04 0.04 0.03 0.03 0.02 0.03 0.03 0.03 0.04 0.05 0.06 0.07 0.10 0.11 0.10 0.08 0.07 0.07 0.07 0.07 0.06 0.06
MSLP
1015.32 1015.52 1015.75 1015.97 1016.14 1016.25 1016.29 1016.26 1016.18 1016.09 1016.01 1015.96 1015.97 1016.02 1016.10 1016.21 1016.30 1016.36 1016.37 1016.32 1016.22 1016.09 1015.94 1015.81 1015.71 1015.64 1015.61 1015.61 1015.62 1015.63 1015.62 1015.56 1015.45 1015.29 1015.09 1014.87 1014.64 1014.44 1014.29 1014.20 1014.20 1014.27 1014.42
1015.47 1015.66 1015.85 1016.03 1016.16 1016.24 1016.25 1016.20 1016.11 1016.01 1015.92 1015.86 1015.84 1015.88 1015.95 1016.04 1016.14 1016.22 1016.27 1016.27 1016.23 1016.15 1016.06 1015.97 1015.89 1015.83 1015.81 1015.81 1015.83 1015.85 1015.86 1015.84 1015.77 1015.65 1015.49 1015.29 1015.07 1014.87 1014.68 1014.55 1014.48 1014.48 1014.56
1015.72 1015.89 1016.05 1016.18 1016.27 1016.30 1016.29 1016.22 1016.12 1016.01 1015.91 1015.82 1015.78 1015.78 1015.82 1015.88 1015.96 1016.03 1016.10 1016.13 1016.14 1016.12 1016.08 1016.04 1016.00 1015.97 1015.97 1015.98 1016.01 1016.04 1016.06 1016.06 1016.03 1015.96 1015.84 1015.68 1015.49 1015.29 1015.10 1014.93 1014.82 1014.75 1014.76
1016.04 1016.19 1016.31 1016.40 1016.45 1016.45 1016.42 1016.34 1016.24 1016.13 1016.01 1015.91 1015.84 1015.79 1015.77 1015.78 1015.81 1015.86 1015.91 1015.96 1015.99 1016.02 1016.03 1016.03 1016.03 1016.04 1016.05 1016.07 1016.10 1016.13 1016.17 1016.19 1016.19 1016.15 1016.08 1015.96 1015.82 1015.64 1015.46 1015.29 1015.15 1015.05 1014.99
1016.40 1016.53 1016.61 1016.67 1016.68 1016.67 1016.63 1016.56 1016.47 1016.37 1016.26 1016.14 1016.03 1015.94 1015.85 1015.80 1015.76 1015.76 1015.77 1015.80 1015.84 1015.89 1015.93 1015.97 1015.99 1016.02 1016.03 1016.05 1016.07 1016.10 1016.12 1016.15 1016.17 1016.17 1016.14 1016.07 1015.98 1015.85 1015.71 1015.56 1015.42 1015.30 1015.22
1016.76 1016.86 1016.92 1016.94 1016.94 1016.93 1016.90 1016.86 1016.80 1016.73 1016.63 1016.51 1016.38 1016.23 1016.09 1015.95 1015.84 1015.77 1015.72 1015.72 1015.74 1015.78 1015.83 1015.88 1015.91 1015.93 1015.93 1015.93 1015.92 1015.92 1015.92 1015.94 1015.96 1015.98 1015.98 1015.97 1015.94 1015.87 1015.79 1015.68 1015.57 1015.47 1015.38
1017.07 1017.15 1017.19 1017.20 1017.20 1017.20 1017.21 1017.21 1017.19 1017.16 1017.09 1016.98 1016.83 1016.65 1016.45 1016.24 1016.06 1015.91 1015.80 1015.75 1015.73 1015.75 1015.78 1015.81 1015.83 1015.82 1015.79 1015.74 1015.69 1015.63 1015.59 1015.57 1015.58 1015.60 1015.63 1015.66 1015.69 1015.69 1015.66 1015.62 1015.56 1015.50 1015.45
1017.33 1017.39 1017.41 1017.43 1017.44 1017.47 1017.51 1017.56 1017.61 1017.62 1017.59 1017.50 1017.35 1017.14 1016.90 1016.64 1016.39 1016.18 1016.01 1015.91 1015.85 1015.83 1015.83 1015.83 1015.80 1015.75 1015.66 1015.55 1015.42 1015.30 1015.19 1015.12 1015.09 1015.09 1015.13 1015.19 1015.25 1015.31 1015.36 1015.38 1015.38 1015.37 1015.36
1017.52 1017.57 1017.59 1017.61 1017.65 1017.71 1017.80 1017.90 1017.99 1018.05 1018.05 1017.99 1017.84 1017.63 1017.36 1017.08 1016.79 1016.54 1016.33 1016.18 1016.09 1016.03 1015.99 1015.95 1015.87 1015.76 1015.61 1015.42 1015.21 1015.00 1014.81 1014.67 1014.58 1014.54 1014.56 1014.62 1014.71 1014.80 1014.89 1014.97 1015.03 1015.08 1015.11
1017.67 1017.72 1017.74 1017.77 1017.83 1017.93 1018.05 1018.18 1018.31 1018.40 1018.44 1018.39 1018.26 1018.05 1017.78 1017.49 1017.19 1016.93 1016.70 1016.54 1016.42 1016.34 1016.26 1016.18 1016.05 1015.88 1015.65 1015.38 1015.09 1014.79 1014.52 1014.29 1014.13 1014.04 1014.01 1014.05 1014.12 1014.22 1014.33 1014.43 1014.52 1014.61 1014.69
1017.81 1017.85 1017.88 1017.93 1018.00 1018.11 1018.25 1018.41 1018.55 1018.65 1018.70 1018.66 1018.54 1018.35 1018.10 1017.82 1017.54 1017.28 1017.07 1016.91 1016.79 1016.69 1016.60 1016.48 1016.31 1016.09 1015.80 1015.46 1015.09 1014.71 1014.35 1014.05 1013.81 1013.64 1013.55 1013.53 1013.56 1013.62 1013.71 1013.80 1013.90 1014.00 1014.10
1017.96 1018.01 1018.05 1018.10 1018.18 1018.29 1018.43 1018.57 1018.70 1018.80 1018.83 1018.79 1018.68 1018.50 1018.27 1018.02 1017.77 1017.55 1017.37 1017.23 1017.12 1017.03 1016.93 1016.79 1016.60 1016.34 1016.01 1015.61 1015.19 1014.75 1014.32 1013.94 1013.63 1013.38 1013.21 1013.11 1013.06 1013.06 1013.09 1013.13 1013.19 1013.27 1013.36
1018.16 1018.21 1018.25 1018.31 1018.38 1018.48 1018.59 1018.70 1018.79 1018.84 1018.85 1018.79 1018.67 1018.50 1018.29 1018.07 1017.86 1017.68 1017.54 1017.44 1017.35 1017.28 1017.18 1017.04 1016.83 1016.55 1016.20 1015.79 1015.33 1014.85 1014.39 1013.95 1013.57 1013.25 1013.00 1012.80 1012.66 1012.56 1012.50 1012.46 1012.45 1012.47 1012.52
1018.40 1018.45 1018.50 1018.55 1018.60 1018.67 1018.73 1018.79 1018.82 1018.82 1018.77 1018.68 1018.54 1018.37 1018.18 1017.99 1017.82 1017.67 1017.57 1017.49 1017.43 1017.37 1017.28 1017.14 1016.94 1016.67 1016.32 1015.90 1015.44 1014.96 1014.48 1014.02 1013.60 1013.22 1012.89 1012.60 1012.36 1012.14 1011.97 1011.82 1011.71 1011.64 1011.62
1018.66 1018.72 1018.77 1018.81 1018.84 1018.86 1018.87 1018.86 1018.83 1018.76 1018.65 1018.51 1018.34 1018.15 1017.97 1017.79 1017.64 1017.52 1017.44 1017.38 1017.33 1017.28 1017.19 1017.06 1016.87 1016.61 1016.28 1015.89 1015.47 1015.01 1014.55 1014.09 1013.65 1013.23 1012.84 1012.47 1012.12 1011.80 1011.50 1011.23 1011.01 1010.83 1010.72
1018.92 1018.98 1019.03 1019.05 1019.05 1019.03 1018.99 1018.92 1018.81 1018.68 1018.51 1018.32 1018.11 1017.90 1017.70 1017.52 1017.37 1017.25 1017.17 1017.10 1017.05 1016.99 1016.90 1016.77 1016.59 1016.36 1016.06 1015.72 1015.34 1014.93 1014.51 1014.08 1013.65 1013.22 1012.79 1012.37 1011.94 1011.51 1011.10 1010.72 1010.38 1010.09 1009.88
1019.10 1019.17 1019.21 1019.23 1019.21 1019.15 1019.07 1018.94 1018.78 1018.59 1018.37 1018.13 1017.88 1017.64 1017.41 1017.21 1017.04 1016.90 1016.79 1016.71 1016.63 1016.54 1016.44 1016.30 1016.13 1015.92 1015.67 1015.38 1015.06 1014.71 1014.35 1013.96 1013.56 1013.14 1012.70 1012.24 1011.75 1011.25 1010.76 1010.27 1009.83 1009.43 1009.12
1019.15 1019.23 1019.27 1019.28 1019.26 1019.18 1019.07 1018.91 1018.71 1018.47 1018.21 1017.94 1017.65 1017.38 1017.12 1016.88 1016.68 1016.50 1016.35 1016.22 1016.10 1015.98 1015.85 1015.70 1015.53 1015.33 1015.12 1014.87 1014.61 1014.33 1014.02 1013.69 1013.33 1012.94 1012.50 1012.03 1011.51 1010.97 1010.42 1009.87 1009.35 1008.87 1008.47
1019.04 1019.12 1019.17 1019.19 1019.16 1019.08 1018.96 1018.78 1018.56 1018.31 1018.03 1017.72 1017.41 1017.11 1016.82 1016.54 1016.30 1016.07 1015.87 1015.68 1015.51 1015.35 1015.18 1015.01 1014.83 1014.64 1014.45 1014.24 1014.02 1013.79 1013.53 1013.25 1012.93 1012.56 1012.15 1011.68 1011.17 1010.62 1010.05 1009.47 1008.91 1008.38 1007.92
1018.74 1018.83 1018.88 1018.91 1018.89 1018.82 1018.70 1018.53 1018.31 1018.06 1017.77 1017.45 1017.13 1016.80 1016.48 1016.17 1015.87 1015.60 1015.35 1015.11 1014.88 1014.67 1014.47 1014.27 1014.07 1013.88 1013.69 1013.50 1013.31 1013.10 1012.87 1012.62 1012.32 1011.98 1011.59 1011.15 1010.66 1010.13 1009.58 1009.01 1008.45 1007.92 1007.43
1018.26 1018.35 1018.41 1018.44 1018.43 1018.38 1018.28 1018.12 1017.92 1017.67 1017.39 1017.08 1016.75 1016.40 1016.06 1015.72 1015.39 1015.07 1014.77 1014.49 1014.22 1013.97 1013.73 1013.50 1013.28 1013.07 1012.87 1012.68 1012.47 1012.26 1012.04 1011.79 1011.50 1011.18 1010.82 1010.40 1009.96 1009.47 1008.97 1008.45 1007.93 1007.42 1006.94
1017.63 1017.70 1017.76 1017.80 1017.80 1017.76 1017.68 1017.54 1017.36 1017.13 1016.86 1016.55 1016.22 1015.87 1015.51 1015.15 1014.80 1014.45 1014.12 1013.80 1013.50 1013.21 1012.94 1012.69 1012.45 1012.21 1011.98 1011.75 1011.53 1011.29 1011.04 1010.77 1010.47 1010.15 1009.81 1009.43 1009.03 1008.61 1008.18 1007.74 1007.29 1006.84 1006.40
1016.87 1016.92 1016.96 1017.00 1017.00 1016.97 1016.90 1016.78 1016.62 1016.40 1016.14 1015.84 1015.52 1015.17 1014.80 1014.43 1014.06 1013.70 1013.35 1013.01 1012.69 1012.39 1012.10 1011.82 1011.54 1011.28 1011.01 1010.74 1010.47 1010.18 1009.89 1009.58 1009.26 1008.93 1008.60 1008.25 1007.91 1007.56 1007.21 1006.86 1006.50 1006.14 1005.76
1016.03 1016.05 1016.07 1016.08 1016.08 1016.05 1015.98 1015.87 1015.71 1015.50 1015.25 1014.96 1014.63 1014.28 1013.91 1013.54 1013.16 1012.79 1012.44 1012.09 1011.77 1011.45 1011.15 1010.86 1010.56 1010.26 1009.96 1009.64 1009.31 1008.97 1008.63 1008.27 1007.92 1007.58 1007.25 1006.93 1006.64 1006.36 1006.10 1005.84 1005.57 1005.29 1004.98
1015.14 1015.12 1015.11 1015.09 1015.07 1015.02 1014.94 1014.83 1014.66 1014.46 1014.21 1013.91 1013.59 1013.23 1012.86 1012.48 1012.11 1011.74 1011.38 1011.04 1010.72 1010.40 1010.10 1009.80 1009.49 1009.16 1008.83 1008.47 1008.10 1007.71 1007.32 1006.92 1006.54 1006.18 1005.85 1005.56 1005.30 1005.08 1004.89 1004.70 1004.51 1004.30 1004.04
1014.24 1014.18 1014.12 1014.07 1014.02 1013.95 1013.85 1013.71 1013.54 1013.32 1013.06 1012.76 1012.42 1012.06 1011.69 1011.30 1010.92 1010.55 1010.20 1009.87 1009.55 1009.24 1008.94 1008.64 1008.33 1008.00 1007.64 1007.27 1006.87 1006.45 1006.02 1005.60 1005.20 1004.82 1004.50 1004.22 1003.98 1003.80 1003.64 1003.50 1003.35 1003.18 1002.95
Thickness
5719 5717 5716 5714 5712 5710 5708 5706 5705 5704 5703 5701 5700 5698 5697 5695 5694 5693 5691 5689 5687 5686 5685 5683 5682 5681 5680 5680 5680 5679 5677 5675 5672 5675 5679 5683 5685 5687 5690 5692 5694 5695 5697
5717 5716 5713 5712 5710 5707 5706 5705 5703 5702 5701 5700 5698 5696 5695 5694 5693 5691 5689 5688 5686 5684 5683 5682 5681 5681 5680 5679 5678 5677 5676 5675 5673 5672 5674 5677 5680 5682 5685 5686 5688 5690 5693
5715 5713 5710 5708 5706 5705 5703 5702 5701 5700 5699 5697 5696 5694 5693 5692 5690 5689 5687 5686 5684 5683 5682 5681 5680 5679 5678 5677 5676 5675 5674 5674 5672 5670 5670 5673 5675 5677 5678 5680 5683 5685 5687
5712 5709 5707 5705 5704 5702 5701 5700 5699 5697 5696 5694 5693 5692 5691 5690 5688 5687 5685 5683 5682 5681 5680 5679 5679 5678 5676 5676 5675 5673 5672 5670 5669 5667 5667 5667 5669 5672 5673 5673 5675 5678 5681
5707 5705 5703 5702 5701 5699 5698 5697 5695 5694 5693 5691 5690 5689 5688 5687 5686 5684 5682 5681 5679 5678 5678 5677 5677 5677 5676 5675 5674 5671 5670 5667 5665 5664 5663 5663 5664 5665 5667 5669 5670 5672 5675
5702 5700 5699 5698 5697 5695 5694 5693 5692 5690 5689 5687 5686 5684 5683 5683 5683 5682 5680 5678 5676 5675 5674 5675 5675 5674 5674 5673 5672 5671 5669 5666 5663 5661 5661 5661 5662 5663 5665 5666 5665 5665 5666
5697 5696 5695 5694 5692 5690 5690 5688 5686 5685 5684 5682 5681 5679 5678 5678 5678 5678 5676 5674 5672 5671 5670 5670 5671 5671 5670 5668 5668 5668 5667 5666 5665 5662 5660 5660 5661 5662 5662 5662 5662 5662 5664
5691 5690 5689 5688 5687 5685 5683 5682 5681 5680 5678 5676 5675 5674 5672 5673 5673 5672 5671 5669 5667 5666 5665 5665 5664 5665 5665 5663 5662 5661 5661 5661 5661 5660 5660 5661 5662 5662 5662 5662 5661 5660 5660
5684 5683 5683 5682 5680 5678 5676 5675 5674 5673 5671 5670 5669 5668 5666 5666 5667 5666 5665 5662 5660 5660 5660 5660 5659 5659 5660 5659 5657 5655 5655 5656 5658 5658 5658 5659 5659 5659 5659 5657 5655 5654 5653
5678 5678 5677 5676 5674 5672 5670 5668 5667 5666 5664 5663 5662 5660 5659 5658 5659 5659 5658 5654 5652 5653 5653 5653 5654 5654 5654 5653 5650 5649 5649 5651 5651 5652 5652 5653 5654 5654 5655 5654 5653 5651 5650
5672 5671 5670 5668 5666 5664 5662 5661 5659 5657 5655 5654 5653 5652 5651 5651 5651 5651 5650 5647 5645 5645 5645 5645 5646 5647 5647 5646 5645 5644 5645 5645 5644 5644 5644 5645 5646 5647 5648 5649 5650 5649 5648
5663 5662 5660 5659 5657 5657 5653 5651 5649 5647 5644 5643 5642 5642 5642 5642 5642 5642 5642 5641 5639 5637 5638 5638 5639 5640 5640 5639 5638 5638 5639 5638 5636 5635 5635 5636 5637 5639 5641 5642 5643 5644 5645
5653 5651 5649 5648 5646 5645 5642 5640 5638 5636 5634 5633 5631 5631 5631 5632 5632 5632 5632 5632 5630 5629 5630 5630 5631 5631 5631 5631 5631 5631 5630 5628 5628 5627 5627 5629 5630 5632 5632 5633 5634 5635 5637
5641 5639 5638 5636 5634 5633 5631 5629 5627 5624 5622 5622 5621 5620 5620 5620 5620 5620 5620 5619 5619 5619 5619 5620 5620 5620 5619 5620 5621 5621 5620 5620 5619 5620 5621 5621 5621 5622 5622 5623 5623 5624 5625
5629 5627 5625 5624 5622 5620 5619 5617 5615 5614 5612 5610 5610 5609 5607 5608 5609 5609 5607 5607 5606 5606 5606 5606 5606 5606 5606 5608 5609 5609 5610 5610 5610 5610 5611 5611 5611 5612 5612 5613 5614 5614 5615
5617 5615 5612 5610 5609 5607 5605 5605 5605 5603 5603 5602 5601 5599 5598 5598 5598 5597 5596 5596 5595 5594 5592 5592 5593 5593 5594 5596 5598 5598 5598 5599 5600 5600 5600 5601 5601 5602 5602 5603 5603 5604 5606
5605 5602 5600 5598 5596 5593 5592 5590 5590 5592 5591 5590 5588 5587 5585 5585 5585 5584 5583 5582 5582 5580 5577 5578 5579 5581 5582 5584 5585 5586 5588 5589 5589 5588 5589 5590 5591 5592 5592 5592 5592 5593 5595
5593 5591 5588 5584 5582 5580 5578 5577 5575 5575 5575 5575 5575 5573 5572 5571 5570 5569 5568 5566 5565 5564 5563 5564 5565 5567 5568 5570 5573 5574 5576 5577 5577 5577 5578 5579 5580 5581 5581 5582 5582 5583 5584
5580 5577 5574 5572 5569 5567 5565 5563 5561 5560 5559 5559 5559 5558 5557 5556 5555 5553 5551 5548 5548 5548 5548 5549 5551 5553 5554 5556 5559 5561 5563 5564 5565 5566 5567 5568 5568 5569 5571 5572 5572 5573 5573
5566 5565 5563 5559 5556 5553 5551 5549 5547 5545 5544 5543 5542 5541 5540 5538 5537 5536 5535 5533 5532 5533 5534 5535 5536 5538 5540 5542 5544 5546 5548 5551 5553 5554 5556 5557 5557 5557 5559 5561 5562 5563 5564
5553 5550 5549 5545 5540 5538 5536 5534 5532 5530 5528 5527 5527 5527 5525 5522 5521 5521 5520 5519 5519 5520 5521 5521 5523 5524 5526 5528 5530 5533 5535 5538 5540 5542 5544 5546 5546 5547 5548 5549 5551 5552 5553
5538 5535 5532 5529 5526 5524 5521 5519 5517 5515 5513 5512 5512 5511 5510 5507 5506 5506 5506 5506 5506 5507 5507 5508 5510 5511 5513 5515 5518 5520 5523 5526 5528 5531 5532 5533 5536 5536 5537 5538 5540 5541 5543
5525 5522 5518 5515 5512 5510 5507 5504 5502 5500 5499 5497 5497 5496 5495 5493 5492 5492 5492 5493 5493 5494 5495 5495 5497 5500 5502 5504 5506 5508 5511 5514 5517 5519 5521 5522 5524 5525 5527 5529 5530 5530 5532
5511 5507 5504 5501 5498 5495 5492 5490 5488 5487 5485 5484 5483 5482 5481 5481 5480 5480 5480 5481 5481 5482 5483 5484 5486 5489 5491 5493 5495 5498 5500 5503 5505 5508 5510 5512 5514 5515 5516 5519 5521 5523 5524
5497 5493 5490 5487 5484 5482 5479 5478 5476 5474 5473 5472 5471 5470 5470 5469 5469 5470 5470 5471 5471 5473 5475 5475 5477 5479 5482 5484 5486 5488 5490 5492 5494 5496 5498 5501 5504 5506 5507 5509 5512 5514 5515
5484 5481 5478 5475 5472 5469 5467 5466 5464 5463 5462 5461 5460 5460 5459 5459 5459 5460 5461 5461 5462 5464 5466 5467 5469 5471 5474 5475 5477 5479 5480 5482 5484 5485 5487 5490 5493 5496 5498 5500 5502 5505 5507